カタログに戻る

STARLINK-34111

運用中通信VLEO
NORAD 64041·PAYLOAD·🇺🇸 United States

打ち上げ May 16, 2025 から Vandenberg Space Force Base

Loading…

次のパス (今後24時間)

TLE

最新Source: CelesTrak SupGP

元期: Sep 15, 2026, 02:32 UTC

1 64041C 25102V   26258.10604167  .00087546  00000+0  30457-2 0  2581
2 64041  70.0012 355.0445 0003335 268.4395 338.3205 15.29531855    13

AllMySatでSTARLINK-34111をリアルタイム追跡

Download on the App Store